timestamp,wind_dir_avg,wind_spd_avg,wind_spd_max_dir,wind_spd_gust,battery_voltage,lat,long
2023-08-09 00:04:00+00:00,136.0,3.5,140.0,4.18,12.73,47.59359,-54.27349
2023-08-09 00:14:01+00:00,134.0,3.43,140.0,4.18,12.49,47.59359,-54.27349
2023-08-09 00:24:01+00:00,130.0,3.35,138.0,3.98,12.49,47.59359,-54.27349
2023-08-09 00:34:01+00:00,121.0,4.15,119.0,4.82,12.49,47.59359,-54.27349
2023-08-09 00:44:01+00:00,116.0,2.94,126.0,4.41,12.49,47.59359,-54.27349
2023-08-09 00:54:01+00:00,112.0,3.18,90.0,4.85,12.49,47.59359,-54.27349
2023-08-09 01:04:01+00:00,97.0,2.49,68.0,4.81,12.49,47.59359,-54.27349
2023-08-09 01:14:01+00:00,112.0,2.83,120.0,4.52,12.41,47.59359,-54.27349
2023-08-09 01:24:01+00:00,108.0,2.53,85.0,4.17,12.41,47.59359,-54.27349
2023-08-09 01:34:01+00:00,93.0,2.84,107.0,4.55,12.41,47.59359,-54.27349
2023-08-09 01:44:01+00:00,88.0,1.79,74.0,2.86,12.41,47.59359,-54.27349
2023-08-09 01:54:01+00:00,90.0,2.7,99.0,4.61,12.41,47.59359,-54.27349
2023-08-09 02:04:01+00:00,81.0,2.48,81.0,3.36,12.41,47.59359,-54.27349
2023-08-09 02:14:00+00:00,95.0,1.52,101.0,2.05,12.41,47.59359,-54.27349
2023-08-09 02:24:00+00:00,71.0,1.89,66.0,2.65,12.41,47.59359,-54.27349
2023-08-09 02:34:00+00:00,86.0,1.47,90.0,2.66,12.41,47.59359,-54.27349
2023-08-09 02:44:00+00:00,74.0,1.76,69.0,2.91,12.41,47.59359,-54.27349
2023-08-09 02:54:00+00:00,80.0,2.14,76.0,3.28,12.41,47.59359,-54.27349
2023-08-09 03:04:00+00:00,88.0,1.55,93.0,2.41,12.41,47.59359,-54.27349
2023-08-09 03:14:00+00:00,80.0,2.56,72.0,3.85,12.41,47.59359,-54.27349
2023-08-09 03:24:00+00:00,104.0,3.09,126.0,4.22,12.41,47.59359,-54.27349
2023-08-09 03:34:00+00:00,104.0,2.51,113.0,4.53,12.41,47.59359,-54.27349
2023-08-09 03:44:00+00:00,120.0,2.6,117.0,3.76,12.41,47.59359,-54.27349
2023-08-09 03:54:00+00:00,122.0,3.07,107.0,4.06,12.41,47.59359,-54.27349
2023-08-09 04:04:00+00:00,101.0,2.42,130.0,4.71,12.41,47.59359,-54.27349
2023-08-09 04:14:00+00:00,116.0,3.28,127.0,4.65,12.41,47.59359,-54.27349
2023-08-09 04:24:00+00:00,98.0,2.77,102.0,4.13,12.41,47.59359,-54.27349
2023-08-09 04:34:00+00:00,100.0,3.11,101.0,4.45,12.41,47.59359,-54.27349
2023-08-09 04:44:00+00:00,99.0,3.08,94.0,4.62,12.41,47.59359,-54.27349
2023-08-09 04:54:00+00:00,102.0,2.62,99.0,3.95,12.41,47.59359,-54.27349
2023-08-09 05:04:00+00:00,123.0,3.22,121.0,3.94,12.41,47.59359,-54.27349
2023-08-09 05:14:01+00:00,137.0,3.75,141.0,4.14,12.41,47.59359,-54.27349
2023-08-09 05:24:01+00:00,119.0,2.98,126.0,3.38,12.41,47.59359,-54.27349
2023-08-09 05:34:01+00:00,134.0,3.02,134.0,3.84,12.41,47.59359,-54.27349
2023-08-09 05:44:01+00:00,124.0,2.77,118.0,3.83,12.41,47.59359,-54.27349
2023-08-09 05:54:01+00:00,117.0,2.58,110.0,3.3,12.41,47.59359,-54.27349
2023-08-09 06:04:01+00:00,133.0,2.51,142.0,3.15,12.41,47.59359,-54.27349
2023-08-09 06:14:00+00:00,95.0,2.4,73.0,3.71,12.33,47.59359,-54.27349
2023-08-09 06:24:00+00:00,100.0,1.81,77.0,2.8,12.33,47.59359,-54.27349
2023-08-09 06:34:00+00:00,121.0,2.52,128.0,3.51,12.33,47.59359,-54.27349
2023-08-09 06:44:00+00:00,131.0,2.92,130.0,3.58,12.33,47.59359,-54.27349
2023-08-09 06:54:00+00:00,122.0,2.28,129.0,2.64,12.33,47.59359,-54.27349
2023-08-09 07:04:00+00:00,133.0,2.54,145.0,3.21,12.33,47.59359,-54.27349
2023-08-09 07:14:01+00:00,135.0,3.05,135.0,3.43,12.33,47.59359,-54.27349
2023-08-09 07:24:01+00:00,135.0,3.4,135.0,3.95,12.33,47.59359,-54.27349
2023-08-09 07:34:01+00:00,125.0,2.47,125.0,2.79,12.33,47.59359,-54.27349
2023-08-09 07:44:01+00:00,127.0,2.27,131.0,2.94,12.33,47.59359,-54.27349
2023-08-09 07:54:01+00:00,107.0,1.49,109.0,2.2,12.33,47.59359,-54.27349
2023-08-09 08:04:01+00:00,134.0,1.73,134.0,2.26,12.33,47.59359,-54.27349
2023-08-09 08:14:01+00:00,128.0,2.24,136.0,2.99,12.25,47.59359,-54.27349
2023-08-09 08:24:01+00:00,126.0,2.33,123.0,2.92,12.25,47.59359,-54.27349
2023-08-09 08:34:01+00:00,124.0,2.22,125.0,2.64,12.25,47.59359,-54.27349
2023-08-09 08:44:01+00:00,139.0,1.95,135.0,2.56,12.25,47.59359,-54.27349
2023-08-09 08:54:01+00:00,110.0,2.21,132.0,3.51,12.25,47.59359,-54.27349
2023-08-09 09:04:01+00:00,106.0,2.05,89.0,3.37,12.25,47.59359,-54.27349
2023-08-09 09:14:00+00:00,112.0,1.7,118.0,2.66,12.25,47.59359,-54.27349
2023-08-09 09:24:00+00:00,120.0,2.74,117.0,3.89,12.25,47.59359,-54.27349
2023-08-09 09:34:00+00:00,128.0,3.4,130.0,4.09,12.25,47.59359,-54.27349
2023-08-09 09:44:00+00:00,136.0,3.39,140.0,3.86,12.25,47.59359,-54.27349
2023-08-09 09:54:00+00:00,150.0,3.02,146.0,3.45,12.25,47.59359,-54.27349
2023-08-09 10:04:00+00:00,135.0,2.47,140.0,3.04,12.25,47.59359,-54.27349
2023-08-09 10:14:00+00:00,138.0,2.75,140.0,3.26,12.57,47.59359,-54.27349
2023-08-09 10:24:00+00:00,134.0,2.89,129.0,3.51,12.57,47.59359,-54.27349
2023-08-09 10:34:00+00:00,139.0,3.18,139.0,3.77,12.57,47.59359,-54.27349
2023-08-09 10:44:00+00:00,129.0,2.74,129.0,3.22,12.57,47.59359,-54.27349
2023-08-09 10:54:00+00:00,129.0,2.93,124.0,3.81,12.57,47.59359,-54.27349
2023-08-09 11:04:00+00:00,130.0,2.71,127.0,3.31,12.57,47.59359,-54.27349
2023-08-09 11:14:01+00:00,156.0,2.24,156.0,2.66,13.05,47.59359,-54.27349
2023-08-09 11:24:01+00:00,151.0,2.98,149.0,3.46,13.05,47.59359,-54.27349
2023-08-09 11:34:01+00:00,143.0,3.14,145.0,3.67,13.05,47.59359,-54.27349
2023-08-09 11:44:01+00:00,143.0,3.12,143.0,3.59,13.05,47.59359,-54.27349
2023-08-09 11:54:01+00:00,135.0,2.49,120.0,3.32,13.05,47.59359,-54.27349
2023-08-09 12:04:01+00:00,124.0,2.76,123.0,3.35,13.05,47.59359,-54.27349
2023-08-09 12:14:00+00:00,125.0,2.5,110.0,3.62,13.29,47.59359,-54.27349
2023-08-09 12:24:00+00:00,131.0,3.47,137.0,4.16,13.29,47.59359,-54.27349
2023-08-09 12:34:00+00:00,121.0,4.06,126.0,5.07,13.29,47.59359,-54.27349
2023-08-09 12:44:00+00:00,117.0,2.98,127.0,4.84,13.29,47.59359,-54.27349
2023-08-09 12:54:00+00:00,146.0,3.95,147.0,4.42,13.29,47.59359,-54.27349
2023-08-09 13:04:00+00:00,142.0,4.65,142.0,5.31,13.29,47.59359,-54.27349
2023-08-09 13:14:00+00:00,148.0,4.94,149.0,5.93,13.44,47.59359,-54.27349
2023-08-09 13:24:00+00:00,184.0,5.75,177.0,7.21,13.44,47.59359,-54.27349
2023-08-09 13:34:00+00:00,213.0,5.66,212.0,6.51,13.44,47.59359,-54.27349
2023-08-09 13:44:00+00:00,209.0,6.38,203.0,7.76,13.44,47.59359,-54.27349
2023-08-09 13:54:00+00:00,216.0,6.59,215.0,7.31,13.44,47.59359,-54.27349
2023-08-09 14:04:00+00:00,218.0,7.09,217.0,8.29,13.44,47.59359,-54.27349
2023-08-09 14:14:01+00:00,215.0,7.66,216.0,8.4,13.68,47.59359,-54.27349
2023-08-09 14:24:01+00:00,214.0,7.49,215.0,8.49,13.68,47.59359,-54.27349
2023-08-09 14:34:01+00:00,213.0,7.02,212.0,7.89,13.68,47.59359,-54.27349
2023-08-09 14:44:01+00:00,209.0,7.43,213.0,8.06,13.68,47.59359,-54.27349
2023-08-09 14:54:01+00:00,212.0,7.44,209.0,7.94,13.68,47.59359,-54.27349
2023-08-09 15:04:01+00:00,215.0,7.09,214.0,8.11,13.68,47.59359,-54.27349
2023-08-09 15:14:00+00:00,216.0,6.77,215.0,7.27,13.68,47.59359,-54.27349
2023-08-09 15:24:00+00:00,215.0,7.9,225.0,10.33,13.68,47.59359,-54.27349
2023-08-09 15:34:00+00:00,220.0,7.37,230.0,8.16,13.68,47.59359,-54.27349
2023-08-09 15:44:00+00:00,223.0,8.11,225.0,8.92,13.68,47.59359,-54.27349
2023-08-09 15:54:00+00:00,224.0,6.75,228.0,7.81,13.68,47.59359,-54.27349
2023-08-09 16:04:00+00:00,222.0,6.79,224.0,7.88,13.68,47.59359,-54.27349
2023-08-09 16:14:01+00:00,221.0,7.68,224.0,8.78,13.92,47.59359,-54.27349
2023-08-09 16:24:01+00:00,214.0,6.91,214.0,8.11,13.92,47.59359,-54.27349
2023-08-09 16:34:01+00:00,217.0,6.2,220.0,7.09,13.92,47.59359,-54.27349
2023-08-09 16:44:01+00:00,218.0,6.63,218.0,7.72,13.92,47.59359,-54.27349
2023-08-09 16:54:01+00:00,216.0,5.53,217.0,6.69,13.92,47.59359,-54.27349
2023-08-09 17:04:01+00:00,213.0,6.05,204.0,7.18,13.92,47.59359,-54.27349
2023-08-09 17:14:01+00:00,217.0,6.98,218.0,7.93,13.68,47.59359,-54.27349
2023-08-09 17:24:01+00:00,219.0,7.37,219.0,8.46,13.68,47.59359,-54.27349
2023-08-09 17:34:01+00:00,225.0,6.67,218.0,7.41,13.68,47.59359,-54.27349
2023-08-09 17:44:01+00:00,227.0,6.99,230.0,8.1,13.68,47.59359,-54.27349
2023-08-09 17:54:01+00:00,226.0,7.94,226.0,9.05,13.68,47.59359,-54.27349
2023-08-09 18:04:01+00:00,221.0,7.19,229.0,8.15,13.68,47.59359,-54.27349
2023-08-09 18:14:00+00:00,218.0,6.79,214.0,7.79,13.76,47.59359,-54.27349
2023-08-09 18:24:00+00:00,219.0,7.46,221.0,8.48,13.76,47.59359,-54.27349
2023-08-09 18:34:00+00:00,216.0,7.95,214.0,8.72,13.76,47.59359,-54.27349
2023-08-09 18:44:00+00:00,211.0,7.35,210.0,8.0,13.76,47.59359,-54.27349
2023-08-09 18:54:00+00:00,219.0,7.29,232.0,8.87,13.76,47.59359,-54.27349
2023-08-09 19:04:00+00:00,215.0,6.77,211.0,7.79,13.76,47.59359,-54.27349
2023-08-09 19:14:00+00:00,209.0,6.73,208.0,7.64,13.53,47.59359,-54.27349
2023-08-09 19:24:00+00:00,197.0,7.5,201.0,8.38,13.53,47.59359,-54.27349
2023-08-09 19:34:00+00:00,195.0,7.6,196.0,8.22,13.53,47.59359,-54.27349
2023-08-09 19:44:00+00:00,191.0,7.49,193.0,8.56,13.53,47.59359,-54.27349
2023-08-09 19:54:00+00:00,180.0,7.21,178.0,7.82,13.53,47.59359,-54.27349
2023-08-09 20:04:00+00:00,175.0,6.53,179.0,7.39,13.53,47.59359,-54.27349
2023-08-09 20:14:01+00:00,184.0,6.98,187.0,8.46,13.37,47.59359,-54.27349
2023-08-09 20:24:01+00:00,178.0,6.51,179.0,7.23,13.37,47.59359,-54.27349
2023-08-09 20:34:01+00:00,171.0,7.36,173.0,7.95,13.37,47.59359,-54.27349
2023-08-09 20:44:01+00:00,168.0,7.85,172.0,9.32,13.37,47.59359,-54.27349
2023-08-09 20:54:01+00:00,174.0,6.38,185.0,7.48,13.37,47.59359,-54.27349
2023-08-09 21:04:01+00:00,167.0,5.47,167.0,7.29,13.37,47.59359,-54.27349
2023-08-09 21:14:01+00:00,173.0,7.58,174.0,8.31,13.37,47.59359,-54.27349
2023-08-09 21:24:01+00:00,167.0,8.02,170.0,8.79,13.37,47.59359,-54.27349
2023-08-09 21:34:01+00:00,157.0,7.64,159.0,8.84,13.37,47.59359,-54.27349
2023-08-09 21:44:01+00:00,155.0,7.71,152.0,9.46,13.37,47.59359,-54.27349
2023-08-09 21:54:01+00:00,161.0,7.03,158.0,8.25,13.37,47.59359,-54.27349
2023-08-09 22:04:01+00:00,157.0,7.72,159.0,8.8,13.37,47.59359,-54.27349
2023-08-09 22:14:01+00:00,156.0,7.5,150.0,8.35,12.97,47.59359,-54.27349
2023-08-09 22:24:01+00:00,157.0,8.34,155.0,9.51,12.97,47.59359,-54.27349
2023-08-09 22:34:01+00:00,161.0,8.19,158.0,9.19,12.97,47.59359,-54.27349
2023-08-09 22:44:01+00:00,161.0,7.24,159.0,7.86,12.97,47.59359,-54.27349
2023-08-09 22:54:01+00:00,171.0,7.57,176.0,8.96,12.97,47.59359,-54.27349
2023-08-09 23:04:01+00:00,151.0,8.75,152.0,9.98,12.97,47.59359,-54.27349
2023-08-09 23:14:00+00:00,162.0,8.79,162.0,9.88,12.49,47.59359,-54.27349
2023-08-09 23:24:00+00:00,151.0,8.76,151.0,9.68,12.49,47.59359,-54.27349
2023-08-09 23:34:00+00:00,149.0,7.55,154.0,8.72,12.49,47.59359,-54.27349
2023-08-09 23:44:00+00:00,138.0,8.44,136.0,10.16,12.49,47.59359,-54.27349
2023-08-09 23:54:00+00:00,140.0,9.25,142.0,11.02,12.49,47.59359,-54.27349
